Dewpoint
47 49 50 44 40 38 41 43 45 45 45 47 47 47 47 46 44 40 35 36 37 32 32 32 32 32 32 33 32 34 32 33 32 30 25 24 21 22 20 20 19 18 18 19 20 18 9 26 27 21 24 27 29 29
47 48 50 46 41 39 40 41 44 45 45 45 46 46 45 45 44 41 33 37 37 34 33 32 32 32 32 32 33 34 32 33 34 31 30 26 22 22 20 15 24 18 20 20 20 18 24 28 28 29 28 28 28 29
47 46 49 48 43 40 39 40 43 44 45 44 45 46 44 42 41 40 35 35 38 33 32 31 30 31 32 32 33 33 34 34 35 34 32 31 27 26 21 21 21 23 27 23 21 21 25 26 29 29 29 29 30 30
47 47 48 49 44 40 39 39 41 43 45 44 44 46 43 41 41 39 34 35 35 34 32 31 31 30 32 32 33 33 33 34 35 34 33 32 29 28 25 24 24 22 26 24 24 25 26 27 28 29 29 30 30 29
48 47 48 50 45 41 39 39 40 43 45 44 44 45 45 41 40 38 36 35 34 33 29 29 31 31 31 31 33 33 33 34 34 32 31 29 31 29 28 27 26 26 24 23 21 24 24 27 29 30 29 29 29 27
47 47 48 50 45 42 39 39 40 42 44 45 44 45 45 42 40 38 34 37 37 35 31 21 31 30 30 30 31 32 34 33 32 33 32 32 31 29 26 26 26 26 27 26 24 28 28 28 30 30 29 29 26 25
48 48 48 49 46 42 40 39 40 42 44 44 45 45 44 41 39 36 33 37 37 36 30 23 26 30 29 29 30 30 31 31 31 32 31 30 30 29 27 25 27 27 25 27 28 28 27 28 27 29 28 26 27 24
48 48 49 49 46 43 40 39 40 42 44 45 45 44 40 39 38 34 37 37 37 32 32 21 21 26 29 28 28 30 29 29 30 29 29 27 28 28 26 27 28 28 27 27 28 27 28 29 29 28 26 24 18 14
48 48 49 49 46 42 40 40 41 45 47 46 45 41 37 34 32 35 39 39 37 31 24 24 18 22 29 28 29 28 29 26 29 28 27 27 25 24 26 26 27 27 27 27 26 26 27 27 28 25 20 17 14 13
48 48 49 49 45 42 40 40 42 46 45 43 37 34 30 33 38 37 35 31 31 31 29 22 27 24 28 27 27 27 28 26 25 26 27 24 24 26 27 27 27 27 27 27 25 24 22 21 21 19 16 15 17 19
48 48 49 48 45 42 41 41 44 44 40 37 33 30 34 36 34 28 26 25 28 24 27 26 27 26 28 25 26 28 26 26 21 22 23 21 23 26 25 24 27 27 28 26 25 24 22 20 19 16 17 19 18 17
48 48 49 47 44 42 41 42 45 40 37 37 35 35 33 29 26 20 17 22 21 19 25 23 22 28 27 28 26 27 24 25 18 25 22 17 21 26 24 26 26 27 25 23 22 21 19 19 18 18 17 17 17 17
48 48 48 47 44 42 41 43 45 41 35 33 31 26 25 24 20 18 15 14 16 21 24 25 22 26 26 28 26 25 21 20 24 20 17 19 26 26 25 26 23 20 18 17 18 19 18 18 17 15 15 17 17 17
48 48 48 46 44 42 42 44 45 37 33 29 25 23 20 20 20 20 18 15 21 24 25 27 25 24 26 24 24 20 22 22 18 14 11 18 28 25 25 25 21 18 18 18 18 18 17 15 16 18 18 17 16 14
48 48 48 46 44 42 43 45 42 38 35 30 29 23 23 22 25 25 26 22 26 27 28 26 25 25 23 23 23 22 20 15 16 10 16 26 26 26 25 23 21 20 19 18 16 15 15 16 16 17 16 16 15 15
48 48 46 45 43 42 44 44 39 37 35 32 30 27 28 27 26 24 22 21 27 27 26 26 22 21 21 21 20 17 15 10 7 17 22 27 24 25 24 23 21 21 19 17 15 15 17 16 15 14 17 16 15 15
48 43 45 44 42 42 43 39 37 35 34 32 29 31 28 26 24 26 23 24 28 26 19 23 16 12 20 20 19 19 16 13 20 24 26 25 25 25 22 22 21 20 18 17 17 17 16 17 15 16 13 14 15 15
44 44 44 42 41 42 39 38 35 33 29 31 29 30 31 30 25 26 27 28 27 24 25 19 21 17 14 12 13 16 20 22 26 24 23 25 26 25 21 19 17 17 17 17 17 17 17 15 15 14 13 14 14 14
43 43 42 41 40 37 33 34 35 29 29 29 29 30 29 28 28 24 25 28 27 27 25 22 16 14 14 16 14 15 21 22 12 17 22 23 23 21 20 18 17 17 17 16 15 15 17 16 14 13 13 13 14 14
43 43 41 41 39 33 31 31 34 31 27 29 29 28 27 27 26 26 25 26 25 24 22 19 16 16 15 17 19 17 19 23 19 15 16 18 18 18 18 17 17 17 16 16 16 17 15 13 13 12 13 13 15 12
42 41 41 40 33 32 32 30 30 31 28 26 27 28 27 27 25 24 24 25 23 22 20 21 21 20 22 21 20 21 20 21 17 15 14 15 16 17 18 18 17 16 15 15 15 16 18 13 12 13 13 13 13 13
36 40 37 34 32 31 32 32 30 29 27 26 27 27 24 23 24 26 26 24 24 24 24 22 23 23 23 24 23 21 20 20 21 21 22 20 16 17 18 18 17 15 15 15 16 16 15 13 12 12 13 13 13 11
38 34 32 32 29 30 28 30 25 24 22 21 25 23 23 23 25 28 24 25 25 26 25 24 24 24 24 25 25 24 22 22 22 21 20 20 18 18 18 18 17 16 15 16 17 16 13 12 12 13 12 12 10 11
35 32 30 29 28 26 26 24 26 23 22 20 20 20 21 22 25 23 21 22 24 25 26 26 25 24 23 22 23 24 23 22 22 20 19 18 17 17 18 17 17 18 17 17 16 15 13 12 12 12 11 10 11 11
28 28 29 26 27 21 20 20 20 20 17 19 19 19 20 21 19 18 17 18 20 22 24 25 25 25 24 23 24 24 23 22 22 21 18 18 17 17 16 16 17 17 17 16 15 14 12 11 11 11 11 11 10 11
25 27 26 26 22 19 17 17 18 18 19 19 19 19 20 19 18 17 17 20 20 21 22 23 23 24 24 25 24 23 22 21 21 20 18 18 17 16 16 14 13 14 16 16 15 13 12 11 11 11 11 11 14 12
24 24 28 25 21 19 18 19 19 19 18 18 18 18 19 18 18 18 19 22 21 20 22 24 25 24 23 23 24 23 21 21 20 20 21 19 17 18 17 14 12 13 16 16 15 13 12 11 11 11 11 11 11 11
28 25 22 20 19 18 17 18 18 18 18 19 18 17 18 19 19 19 21 21 22 23 23 24 26 26 25 24 22 19 17 16 16 17 17 16 16 18 17 18 18 19 17 16 14 13 12 11 11 11 11 10 10 9
23 22 21 19 18 17 17 17 17 18 20 20 18 18 19 21 22 21 20 18 20 21 19 20 21 20 19 18 18 16 16 16 15 15 14 14 14 15 17 19 20 17 15 16 16 13 12 11 11 11 11 10 9 7
20 22 19 18 18 18 17 18 18 21 22 23 24 24 22 20 19 18 18 19 20 18 18 18 18 19 18 18 17 16 15 16 17 16 16 14 13 15 16 17 15 15 16 16 15 15 16 16 15 11 8 7 8 8
22 19 19 19 18 19 18 18 20 21 21 22 20 20 17 16 17 16 17 17 18 18 18 17 17 16 17 16 16 15 15 16 16 16 17 15 14 15 16 16 15 15 15 15 15 16 15 12 10 8 7 7 8 8
21 18 18 17 16 14 16 17 19 20 18 18 16 14 15 15 16 16 15 15 16 16 18 19 17 17 18 18 17 16 18 17 16 18 18 15 15 15 15 15 13 13 13 13 13 13 11 10 8 7 7 7 6 6
17 14 14 15 15 16 17 19 20 18 15 16 15 14 14 15 15 16 16 17 17 17 18 19 20 18 18 18 18 17 18 16 18 19 18 17 16 15 14 13 13 12 11 11 11 11 9 8 7 7 7 7 6 5
Wind_Speed
15 14 14 10 8 6 9 9 10 10 11 12 14 13 14 14 15 6 3 4 2 3 3 3 1 4 0 2 1 4 4 3 3 2 2 2 3 3 3 4 3 3 2 5 3 4 4 8 4 5 4 4 6 4
18 16 15 13 10 8 8 9 9 8 8 10 11 10 12 13 14 9 2 4 4 1 0 1 4 5 4 7 5 2 1 1 1 3 2 3 3 2 3 4 1 5 6 2 7 5 4 10 5 5 7 7 6 7
20 19 15 15 13 10 9 8 9 9 8 8 8 9 11 12 13 8 3 5 2 0 2 1 5 8 4 6 4 4 2 1 1 1 2 3 5 2 4 6 4 3 5 5 3 2 9 10 6 8 6 5 6 6
21 20 17 17 14 12 10 9 9 9 9 7 7 7 8 9 11 8 3 4 1 1 3 2 1 3 4 6 6 3 0 2 3 1 3 4 5 3 4 6 6 6 7 6 8 12 8 9 11 12 9 9 8 6
22 21 17 18 16 13 11 10 9 9 10 8 6 7 7 8 8 3 2 3 3 2 4 4 2 3 2 3 7 6 3 3 1 2 5 6 4 4 5 3 14 11 17 14 15 10 7 2 7 12 11 9 8 7
24 22 19 20 18 15 12 11 11 9 9 10 6 6 6 7 7 2 2 3 5 4 2 5 2 1 2 3 3 5 7 4 2 3 5 4 2 3 7 6 9 14 12 18 17 6 3 8 7 6 8 8 7 5
24 23 20 20 19 16 14 12 12 11 10 11 8 5 5 6 0 1 1 1 5 2 1 6 4 1 1 1 2 2 2 3 5 4 5 4 4 4 6 31 11 15 15 13 12 13 4 7 6 7 10 8 7 4
24 24 22 22 21 18 15 13 12 13 13 13 9 4 2 3 5 2 1 2 2 2 3 3 5 4 1 1 2 1 2 2 4 5 3 4 1 3 11 17 21 18 15 10 12 4 5 11 11 8 8 6 4 2
27 25 23 24 22 19 16 13 11 11 5 9 7 3 1 1 3 3 2 2 2 1 2 2 2 4 3 2 2 2 0 3 2 5 4 5 7 14 19 19 15 12 11 13 11 11 11 10 10 8 6 5 3 2
28 26 25 26 25 21 18 14 9 6 9 9 4 1 3 3 2 2 1 2 1 1 1 5 4 3 2 0 2 1 1 3 3 3 1 6 13 17 18 16 15 10 12 21 12 10 9 9 10 9 6 5 5 3
30 29 28 28 27 24 21 17 11 11 5 2 4 4 1 1 1 2 1 2 3 3 4 4 5 4 3 4 5 2 2 1 3 2 2 5 7 5 11 14 12 16 18 14 4 5 10 11 14 11 8 5 4 4
32 31 29 30 29 27 23 20 18 9 5 6 5 4 2 1 2 2 3 2 6 6 5 5 5 3 2 1 3 2 2 0 6 3 3 6 6 8 8 6 6 12 16 13 11 15 12 14 12 10 7 6 4 3
34 33 31 32 32 29 26 22 22 9 9 2 1 3 4 3 5 7 10 6 5 7 8 6 4 3 1 1 2 2 3 7 1 2 6 8 9 9 4 2 8 10 13 14 13 13 13 12 9 7 7 4 3 3
36 34 34 34 33 31 28 23 22 15 3 5 6 7 9 8 10 11 9 8 6 6 13 9 6 3 3 3 3 3 4 0 3 5 7 5 7 10 4 4 10 12 13 14 12 11 11 10 8 6 5 3 3 2
37 35 35 35 34 33 29 25 22 6 5 6 6 8 14 8 3 6 5 8 4 15 15 7 4 4 3 3 3 2 3 6 8 7 5 5 7 5 7 8 8 11 14 14 12 12 10 8 7 5 3 3 3 2
37 28 22 35 37 35 30 27 9 4 2 5 7 7 5 3 8 6 9 8 8 15 6 5 5 2 6 5 5 9 5 9 5 6 7 5 8 8 8 10 11 11 12 12 12 11 10 8 6 5 3 3 1 1
37 11 30 42 41 36 34 10 5 7 9 7 8 10 8 3 8 10 11 11 13 13 8 6 8 9 4 4 6 9 9 7 6 4 5 7 8 10 10 11 12 13 13 12 10 10 9 8 7 6 5 2 1 2
16 22 45 46 39 34 7 4 8 9 11 8 7 10 12 6 5 6 9 14 11 10 10 8 7 8 10 8 8 8 15 10 6 6 6 6 6 9 12 14 14 14 14 13 11 9 8 9 7 6 5 4 1 1
25 36 51 52 34 12 9 9 7 8 12 5 8 7 8 5 10 5 13 17 5 5 10 8 9 11 15 11 12 10 9 8 6 4 4 6 8 10 12 12 13 13 14 14 12 10 9 8 6 7 5 4 3 1
40 48 55 48 31 7 8 6 7 5 9 10 6 12 6 5 8 12 15 16 13 6 9 10 16 13 10 11 13 12 8 9 7 6 7 9 10 12 16 16 15 13 11 10 9 9 8 6 6 7 6 5 4 3
27 38 51 38 4 5 8 9 8 7 10 9 9 13 6 4 6 11 14 13 10 8 13 18 16 17 13 13 10 9 10 14 16 15 11 9 12 15 14 14 14 13 12 12 12 10 11 9 8 8 6 5 4 3
6 40 17 6 4 7 5 9 8 9 7 6 11 9 5 7 8 10 11 11 10 23 15 14 19 19 19 22 21 19 19 17 16 13 9 9 8 15 16 17 18 18 16 14 12 11 11 8 8 7 6 5 3 2
27 9 7 5 5 8 6 15 7 10 9 13 11 9 5 7 7 12 8 9 12 14 18 18 27 19 21 17 14 17 19 21 20 19 18 18 15 14 14 17 17 18 17 14 10 10 10 9 8 7 5 4 2 1
15 7 7 12 8 9 10 10 7 9 8 9 12 7 7 8 10 8 8 8 11 7 14 28 21 18 10 10 21 23 21 18 18 17 16 16 17 17 17 17 16 14 12 13 13 11 10 10 9 7 6 5 3 2
9 9 10 9 9 9 11 12 10 8 10 9 11 6 8 7 9 8 8 7 11 19 24 17 18 20 20 20 18 21 15 19 21 22 17 18 14 11 11 12 13 14 14 15 14 14 12 11 9 8 7 7 6 4
9 10 18 23 14 13 16 12 16 10 9 7 10 9 8 8 7 11 7 9 16 18 18 20 21 17 19 21 20 18 18 17 16 18 15 21 21 19 20 19 17 14 13 14 16 17 15 13 12 10 9 9 7 4
12 11 10 4 11 11 8 5 11 12 11 10 12 10 9 9 12 8 7 11 13 14 14 15 16 19 21 16 17 13 11 17 12 11 8 17 17 16 20 22 23 13 19 19 17 17 18 16 14 12 9 7 6 4
7 11 18 14 8 6 10 9 11 16 12 11 17 13 16 14 12 7 12 3 8 7 6 5 10 14 14 12 9 14 12 13 15 15 14 10 7 10 11 9 9 17 18 19 18 16 15 15 14 12 11 9 6 4
7 13 14 13 8 7 12 12 15 10 13 18 19 12 10 8 5 7 6 7 8 11 11 11 7 6 6 7 10 13 18 22 21 18 19 16 12 11 11 13 15 13 15 18 18 17 16 15 13 12 10 7 5 5
10 12 7 10 12 11 9 12 11 14 7 9 7 3 3 5 6 6 10 12 14 16 16 14 13 15 14 15 14 13 14 15 16 14 21 23 18 16 21 19 17 15 15 18 18 17 17 13 13 9 8 7 6 5
17 7 6 5 6 3 5 6 6 5 4 6 3 8 8 4 4 8 15 15 14 11 11 14 15 17 17 18 19 18 20 17 17 10 6 12 18 22 21 19 17 17 17 19 19 17 17 15 13 12 11 10 7 6
8 6 11 6 5 3 3 3 5 5 4 5 4 3 3 4 10 7 10 16 15 17 21 17 20 23 23 14 16 12 5 12 20 15 17 16 17 19 21 21 19 18 18 19 17 17 18 16 15 13 11 10 8 6
5 5 7 8 6 7 5 6 6 4 3 6 10 10 10 9 12 7 6 16 17 24 23 24 19 11 15 20 18 17 11 13 18 20 19 22 26 25 21 20 20 20 22 19 17 18 18 16 15 13 11 10 8 7
Wind_Direction
263 267 249 248 260 279 302 318 341 351 351 356 355 359 1 359 3 19 307 348 344 165 199 152 224 180 237 53 345 324 330 357 333 298 235 251 234 244 276 254 234 231 227 218 187 224 271 168 137 193 168 159 170 159
252 256 252 240 251 267 281 299 320 342 349 347 352 357 359 357 355 5 304 349 9 79 270 226 178 190 201 171 159 282 214 331 341 303 330 306 290 259 221 274 238 259 206 246 209 234 200 189 206 170 163 167 181 169
248 252 250 231 240 254 266 281 299 327 335 339 347 349 356 4 11 12 324 351 15 61 309 209 225 209 181 195 214 161 133 323 88 169 271 268 268 194 251 247 255 254 186 236 307 269 221 201 177 175 177 165 144 144
245 244 249 228 230 243 255 267 283 303 317 324 331 336 346 351 355 20 50 344 74 323 289 269 95 229 186 181 194 229 308 291 217 175 248 257 251 198 252 263 240 233 167 224 246 270 268 240 206 184 158 142 145 146
240 236 237 227 225 233 244 259 272 288 306 304 313 315 327 345 352 4 13 69 89 35 297 292 291 203 193 216 206 200 223 284 245 242 219 233 244 276 258 268 252 214 236 233 255 236 231 216 171 161 163 175 173 167
236 230 229 218 218 227 229 247 261 273 294 291 294 313 313 332 335 10 31 36 43 113 340 297 305 188 200 248 251 202 189 198 218 225 249 268 234 226 265 255 247 238 231 228 242 181 184 148 128 139 159 158 153 148
229 225 225 213 212 221 225 237 253 263 276 278 270 292 295 304 351 235 224 309 346 92 93 296 293 333 283 289 244 228 214 211 182 210 228 235 234 219 250 257 248 255 251 220 171 136 158 190 189 146 137 129 119 101
223 220 216 208 203 212 219 233 248 267 272 262 250 231 205 65 111 212 262 52 12 87 107 275 288 316 19 266 267 203 251 259 223 225 215 200 186 214 256 256 255 260 237 183 174 141 161 142 133 130 126 128 111 52
218 215 209 206 200 200 207 223 245 280 263 177 187 197 349 238 210 203 241 330 94 151 219 173 230 301 352 301 294 309 4 259 312 251 236 173 212 229 230 249 256 225 195 184 151 131 134 148 153 148 143 149 129 50
215 209 205 200 197 189 193 206 227 187 138 134 114 175 252 236 284 330 73 126 85 206 197 229 178 243 172 293 286 288 205 262 266 257 318 233 254 267 267 265 253 246 185 148 151 175 169 171 170 165 162 126 114 91
208 207 201 196 192 184 182 190 196 151 130 172 167 208 223 325 58 32 196 174 163 227 211 235 199 178 177 222 232 212 267 267 267 270 249 264 270 276 329 313 259 199 171 167 150 165 167 175 165 151 134 112 85 63
203 203 199 193 186 180 178 184 179 166 197 192 151 108 91 82 60 189 221 240 208 222 186 190 202 185 162 162 232 226 232 94 249 342 292 263 262 308 326 14 84 138 145 141 136 133 125 125 132 130 123 113 101 75
200 199 196 190 185 176 174 181 177 155 133 68 87 141 146 177 211 212 199 217 213 187 175 161 163 154 113 175 239 228 221 230 317 236 242 247 288 312 284 110 114 119 121 121 120 119 120 116 114 125 135 123 105 85
198 195 193 188 181 172 170 177 172 154 143 187 179 222 203 193 222 198 196 180 178 151 148 134 129 148 150 185 207 240 238 180 253 240 242 263 295 312 216 183 148 146 139 137 133 132 129 127 125 119 115 104 92 62
196 193 188 182 174 167 167 171 161 147 167 207 183 224 217 220 221 186 158 129 136 145 135 121 96 145 163 203 218 262 244 244 224 238 240 248 301 239 196 189 181 167 158 153 149 147 140 142 149 146 119 104 84 29
192 185 188 175 165 163 162 150 151 135 205 208 229 237 187 171 217 190 182 164 159 146 109 103 131 169 224 187 180 221 203 229 234 218 253 289 298 227 197 197 189 178 172 165 163 157 151 160 166 163 131 125 69 350
181 195 164 164 160 160 152 138 134 178 209 214 234 218 195 182 206 199 183 186 162 146 170 145 177 210 136 212 218 197 220 223 207 241 266 258 254 230 190 183 182 174 175 173 168 168 163 160 159 151 155 190 254 288
182 159 161 156 151 155 139 166 164 203 222 207 217 208 201 191 177 180 181 154 153 190 157 198 143 190 212 213 219 223 234 243 241 261 268 266 241 216 195 184 179 180 176 177 178 170 168 180 176 176 169 176 254 129
163 162 158 155 153 136 143 188 186 214 211 194 212 194 194 215 207 182 177 173 157 154 150 178 222 212 218 218 228 242 240 216 220 240 249 242 225 202 200 187 178 178 180 176 180 192 204 201 186 176 172 183 208 255
156 162 159 155 146 132 154 175 174 199 188 200 172 178 190 216 184 192 179 171 159 165 212 219 223 216 203 209 212 234 239 206 185 244 266 239 215 198 195 188 189 184 183 181 189 172 190 185 202 191 188 201 226 248
141 164 157 152 105 129 162 156 177 192 162 185 169 153 194 166 185 186 186 163 183 218 235 230 238 240 234 244 241 226 216 190 213 222 255 261 213 204 199 192 174 175 185 195 209 206 208 203 201 193 196 204 222 243
167 146 152 143 126 163 161 186 154 147 149 144 153 160 171 191 198 193 156 189 223 238 235 230 238 236 237 241 242 230 234 218 221 222 221 183 196 199 205 197 182 188 195 203 209 215 209 184 192 192 202 213 218 284
131 122 113 138 142 165 157 146 151 163 161 175 158 165 201 200 196 142 211 218 239 239 236 230 241 232 231 241 237 236 225 224 227 225 225 216 217 205 190 184 190 188 195 198 192 209 197 177 203 193 204 205 213 267
104 139 158 157 152 170 150 185 154 147 131 164 169 190 197 177 154 200 239 224 237 229 218 230 226 229 231 237 241 243 236 212 223 227 212 201 209 209 193 186 187 193 185 167 168 190 186 185 193 194 202 210 217 224
141 177 160 172 160 141 169 162 165 168 162 173 170 152 163 161 188 222 235 243 227 230 233 225 212 215 226 241 244 241 213 200 215 227 210 193 184 164 180 182 181 181 166 161 173 180 186 186 189 196 205 217 220 220
168 179 188 180 161 169 174 160 183 159 132 155 181 138 150 164 204 243 225 228 227 236 220 211 215 217 230 231 243 245 233 201 196 212 209 186 187 191 184 185 182 202 188 168 167 178 181 185 194 198 213 226 227 176
164 180 179 135 149 133 129 108 142 158 178 177 156 156 160 199 225 243 244 223 226 229 214 205 198 208 229 234 225 230 180 179 182 208 170 180 185 183 177 186 195 204 175 173 174 177 177 182 189 195 207 212 213 189
186 167 169 150 129 137 135 147 159 187 181 157 148 175 183 201 221 218 211 235 207 150 142 181 210 216 227 228 191 147 128 122 104 98 94 84 103 146 155 146 146 157 164 167 168 162 167 175 179 182 196 203 192 179
164 150 128 154 135 166 180 178 192 187 146 168 174 177 206 213 215 202 201 183 156 154 169 184 192 149 129 125 157 167 154 156 158 178 195 195 176 190 164 148 146 152 152 159 163 157 161 163 166 175 182 183 173 173
157 154 123 164 171 187 187 181 177 168 170 176 169 143 232 235 213 164 155 162 182 200 205 207 190 184 197 192 194 196 199 192 192 191 198 205 200 160 160 154 156 154 155 145 143 149 155 150 144 134 151 153 160 160
144 141 115 140 156 122 130 116 101 108 132 181 198 210 226 269 277 219 209 210 209 191 188 206 207 207 206 206 203 204 219 217 218 228 184 152 150 159 160 154 156 155 153 147 151 155 150 156 162 166 167 165 158 152
148 167 138 124 126 95 96 112 131 158 170 195 222 205 253 230 241 247 210 186 196 211 219 212 218 229 214 207 195 188 165 177 186 187 165 160 153 157 151 147 149 151 151 150 154 155 160 163 168 173 171 165 162 173
106 101 96 106 123 155 150 123 161 182 234 224 229 214 214 224 239 242 204 205 206 212 214 215 217 194 190 196 193 187 175 170 170 171 175 160 151 150 148 148 151 151 149 151 158 160 161 162 167 170 165 162 174 185